Location: Old Broadwell Mill Observatory
(33.8015°N, 85.8137°W)
Time: 17:41:28
(UTC-05:00)

Daily predictions for brighter satellites

Satellite Brightness Start Highest point End
(mag) Time Altitude Azimuth Time Altitude Azimuth Time Altitude Azimuth
Cosmos 158 Rocket 3.9 20:07:22 10° S 20:12:21 75° ESE 20:17:31 10° NNE
Cosmos 2233 Rocket 4.1 20:06:33 10° N 20:12:43 59° E 20:18:47 10° SSE
ALOS 2.5 20:08:34 10° SSE 20:13:05 53° ENE 20:17:38 10° N
SeaSat 1 4.4 20:12:09 10° E 20:14:45 14° NE 20:17:21 10° NNE
FengYun 1-2 T 4.4 20:09:40 10° S 20:15:11 79° WSW 20:20:41 10° NNW
Delta 168 4.4 20:14:53 10° SSW 20:17:16 17° SSE 20:20:04 10° ESE
CZ-3C R/B 3.9 20:03:14 10° WSW 20:17:39 22° SSW 20:22:01 10° SE
YAOGAN 11 4.5 20:16:00 10° SSE 20:20:12 46° ENE 20:24:21 10° N
Meteor 1-19 Rocket 4.3 20:17:18 10° S 20:22:49 59° E 20:28:19 10° NNE
Cosmos 1242 Rocket 4.5 20:19:29 10° SW 20:22:55 35° WNW 20:26:23 10° N
Cosmos 2058 Rocket 4.1 20:19:44 10° NNE 20:23:28 27° ENE 20:27:10 10° SE
Cosmos 2098 Rocket 2.7 20:20:52 10° N 20:24:19 80° E 20:28:37 10° S
Meteor 2-4 Rocket 4.2 20:19:00 10° SSE 20:24:27 44° E 20:30:02 10° NNE
Cosmos 2333 Rocket 3.6 20:22:00 10° SW 20:27:22 45° WNW 20:32:46 10° N
Cosmos 2251 Rocket 3.5 20:23:10 10° SSW 20:28:28 87° ESE 20:33:50 10° NNE
ATLAS 3B R/B 4.5 20:29:52 10° ESE 20:31:59 12° ESE 20:34:28 10° E
Cosmos 2297 4.2 20:28:41 10° N 20:34:10 46° ENE 20:39:04 13° SE
deb Chang Zheng 4 3.7 20:30:08 10° NNE 20:34:26 52° E 20:38:41 10° S
Milstar 3 Cent rocket 3.1 20:26:43 10° W 20:35:06 47° SSW 20:39:27 14° SE
CZ-2C R/B 0.8 20:36:24 16° SE 20:37:58 44° ENE 20:40:12 10° N
Cosmos 1844 Rocket 4.1 20:33:07 10° NW 20:38:15 36° WSW 20:43:19 10° S
H-2A R/B 2.9 20:34:55 10° S 20:38:50 81° W 20:42:48 10° NNW
ERS-1 Rocket 3.1 20:37:03 10° SSE 20:41:57 59° ENE 20:46:53 10° N
Envisat 4.0 20:39:38 14° SE 20:43:12 30° ENE 20:47:34 10° N
BREEZE-M DEB (TANK) 3.0 20:35:17 10° SW 20:43:19 82° SE 20:46:02 10° NE
FENGYUN 3A 3.8 20:38:56 10° S 20:44:17 77° WSW 20:49:41 10° NNW
OAO 3 Copernicus 4.4 20:41:06 10° W 20:46:10 78° N 20:50:52 12° E
Cosmos 1110 Rocket 4.1 20:43:01 10° N 20:48:18 66° ENE 20:52:39 15° SSE
Cosmos 1606 Rocket 3.5 20:43:55 10° N 20:48:22 90° SSE 20:52:45 10° S
H-2A R/B 2.1 20:48:21 15° SSE 20:51:44 60° ENE 20:55:59 10° N
Hubble Space Telescope 3.1 20:52:57 10° SW 20:54:12 11° SSW 20:55:29 10° S
Cosmos 1626 Rocket 4.0 20:57:47 18° SSE 21:00:44 42° E 21:04:56 10° NNE
ATLAS CENTAUR R/B 4.4 20:56:52 10° WSW 21:00:56 25° NW 21:05:04 10° N
Abrixas rocket 4.2 20:58:54 10° NNW 21:01:39 22° NNE 21:03:38 14° ENE
SJ-11-01 4.3 21:02:11 14° SSE 21:06:09 86° W 21:10:49 10° NNW
GEOS 3 Rocket 4.3 21:02:56 13° SSE 21:07:27 50° WSW 21:12:33 10° NW
Atlas Centaur 2 3.2 21:03:27 10° SW 21:10:45 51° SSE 21:18:15 13° E
Cosmos 2278 Rocket 3.5 21:10:13 10° NW 21:15:20 36° WSW 21:20:27 10° SSW
Meteor 1-15 Rocket 4.1 21:12:50 10° N 21:18:27 80° E 21:22:12 22° SSE
Cosmos 2228 3.0 21:14:47 10° N 21:19:13 82° E 21:21:32 28° S
Aureole 2 Rocket 3.3 21:15:26 10° SSW 21:19:27 57° WNW 21:23:09 10° N
PSLV R/B 3.6 21:15:57 10° WSW 21:19:28 70° NNW 21:22:27 14° ENE
H-2A R/B 4.1 21:19:20 10° ENE 21:20:19 11° ENE 21:21:29 10° NE
COSMOS 2455 3.0 21:14:47 10° S 21:20:31 50° ESE 21:26:18 10° NE
Cosmos 1891 Rocket 4.4 21:14:38 10° N 21:20:46 73° E 21:24:40 23° SSE
Cosmos 1939 Rocket 2.9 21:18:34 26° S 21:20:54 83° W 21:25:04 10° NNW
CZ-4 R/B 4.5 21:21:48 10° NNE 21:26:26 37° E 21:27:22 34° ESE
SPOT 1/Viking Rocket 4.2 21:26:44 30° ESE 21:28:21 38° ENE 21:33:06 10° N
SPOT 5 2.5 21:26:56 35° SSE 21:28:45 76° ENE 21:33:07 10° N
Cosmos 2369 Rocket 4.0 21:25:58 10° NNE 21:29:34 17° ENE 21:31:20 15° ENE
ARGOS 4.1 21:29:23 28° ESE 21:30:57 33° ENE 21:35:45 10° N
SL-16 R/B 4.0 21:25:56 10° SW 21:30:58 33° WNW 21:36:02 10° N
Cosmos 1666 3.0 21:29:24 10° NNW 21:33:16 65° W 21:34:49 34° SSW
CZ-4 SHROUD 3.3 21:34:31 60° SSW 21:34:53 69° WSW 21:38:03 10° NNW
Tsikada Rocket 4.0 21:33:55 14° S 21:39:34 86° W 21:46:00 10° N
Geosat 4.1 21:36:20 10° NE 21:41:12 49° ESE 21:42:04 44° SE
DEBRIS 2.8 21:42:02 10° NW 21:45:19 48° N 21:45:19 48° N
MetOp-B 4.1 21:49:01 41° SSE 21:50:58 88° WSW 21:56:21 10° NNW
SeaSat 1 2.6 21:50:09 42° S 21:51:44 69° WSW 21:56:39 10° NNW
Lacrosse 4 Rocket 3.9 21:55:02 10° NE 21:55:02 10° NE 21:55:07 10° NE
Cosmos 1302 Rocket 4.4 21:48:22 10° NNW 21:53:31 58° WSW 21:55:30 35° SSW
SL-08 RB Rocket 4.2 21:55:15 44° ENE 21:55:21 44° ENE 21:59:40 10° N
Terra 3.3 21:56:20 23° ENE 21:56:20 23° ENE 21:59:52 10° NNE
Cosmos 1066 Rocket 4.2 21:57:30 51° SE 21:58:35 61° E 22:04:15 10° NNE
Cosmos 1515 3.7 21:58:52 80° N 21:58:52 80° N 22:02:32 10° N
Cosmos 1603 4.5 21:54:13 10° SW 21:59:38 50° WNW 22:05:05 10° N
CZ-4B R/B 3.9 21:55:21 10° N 22:00:22 64° WNW 22:03:36 23° SSW
Cosmos 1346 Rocket 4.3 22:03:05 26° NE 22:03:05 26° NE 22:05:09 10° NNE
Cosmos 1825 Rocket 3.5 22:10:25 83° NE 22:10:25 83° NE 22:14:45 10° N
Cosmos 1461 3.1 22:07:16 10° NNW 22:11:08 64° W 22:11:08 64° W
Cosmos 2142 Rocket 4.4 22:08:19 10° N 22:14:36 68° E 22:15:39 58° SE
Meteor 1-21 4.5 22:19:01 52° E 22:19:01 52° E 22:24:26 10° NNE
Cosmos 1812 Rocket 4.4 22:15:15 10° NNW 22:19:24 43° W 22:19:55 41° WSW
ATLAS 3B R/B 2.8 22:16:52 26° SSW 22:21:40 78° ESE 22:29:17 10° NNE
YAOGAN 6 4.0 22:24:55 35° WNW 22:24:55 35° WNW 22:27:53 10° NNW
Cosmos 1943 3.2 22:23:34 49° SW 22:25:08 78° WNW 22:30:51 10° NNE
Cosmos 407 Rocket 3.5 22:27:23 68° ENE 22:27:23 68° ENE 22:32:08 10° NNE
Cosmos 1634 Rocket 3.8 22:20:44 10° N 22:26:55 90° NNE 22:27:54 66° S
USA 234 3.2 22:30:35 61° SSE 22:31:48 79° SW 22:38:24 10° NW
USA 81 4.4 22:32:47 10° NNW 22:37:57 58° W 22:38:24 56° WSW
Cosmos 1943 Rocket 3.6 22:37:50 10° N 22:42:15 26° ENE 22:42:15 26° ENE
Cosmos 489 Rocket 4.5 22:42:47 63° SW 22:43:52 81° WNW 22:50:16 10° NNE
Cosmos 2279 Rocket 3.8 22:46:26 10° N 22:52:42 83° E 22:52:43 83° E
USA 238 DEB 4.2 22:55:18 46° ENE 22:55:18 46° ENE 23:00:44 10° NE
USA 238 4.2 22:55:26 46° ENE 22:55:26 46° ENE 23:00:48 10° NE
H-2A R/B 2.5 22:59:58 56° NW 22:59:58 56° NW 23:04:02 10° NNW
Atlas Centaur 2 2.9 22:52:17 10° WSW 23:00:29 71° S 23:00:56 69° SSE
Cosmos 2180 Rocket 4.4 23:02:07 10° N 23:08:10 83° NNW 23:08:10 83° NNW
Cosmos 2369 Rocket 2.7 23:08:26 10° NNW 23:13:08 53° WNW 23:13:08 53° WNW
Lacrosse 4 Rocket 3.9 23:31:19 19° NW 23:31:19 19° NW 23:33:31 10° N
COSMOS 2406 4.0 23:32:43 48° NNE 23:32:43 48° NNE 23:36:45 10° NNE
Terra 3.6 23:35:13 25° WNW 23:35:13 25° WNW 23:37:55 10° NW
Cosmos 1092 Rocket 4.4 23:52:56 61° NW 23:52:56 61° NW 23:58:19 10° N
